| time (UTC) | temp C | wind direction | speed KPH | gust KPH | rain 1hr cm | rain 24hr cm | rain mn cm | humidity % | barometer mb |
| 20260504060201 | 7 | 320 | 0.0 | 0.0 | 0.00 | 0.00 | 0.00 | 84 | 1016.8 |
| 20260504050629 | 8 | 320 | 0.0 | 0.0 | 0.00 | 0.00 | 0.00 | 86 | 1016.8 |
| 20260504050126 | 7 | 320 | 0.0 | 0.0 | 0.00 | 0.00 | 0.00 | 83 | 1016.8 |
| 20260504045623 | 7 | 320 | 0.0 | 0.0 | 0.00 | 0.00 | 0.00 | 82 | 1016.8 |
| 20260504045118 | 7 | 320 | 0.0 | 0.0 | 0.00 | 0.00 | 0.00 | 83 | 1016.8 |
| 20260504044616 | 8 | 320 | 0.0 | 0.0 | 0.00 | 0.00 | 0.00 | 82 | 1016.8 |
| 20260504044112 | 8 | 320 | 0.0 | 0.0 | 0.00 | 0.00 | 0.00 | 81 | 1016.8 |
| 20260504043609 | 7 | 320 | 0.0 | 0.0 | 0.00 | 0.00 | 0.00 | 82 | 1016.8 |
| 20260504043107 | 7 | 320 | 0.0 | 0.0 | 0.00 | 0.00 | 0.00 | 81 | 1016.8 |
| 20260504042604 | 7 | 320 | 0.0 | 0.0 | 0.00 | 0.00 | 0.00 | 81 | 1016.8 |
| 20260504042100 | 8 | 320 | 0.0 | 0.0 | 0.00 | 0.00 | 0.00 | 79 | 1016.8 |
| 20260504041556 | 8 | 320 | 0.0 | 0.0 | 0.00 | 0.00 | 0.00 | 78 | 1016.8 |
| 20260504041053 | 8 | 320 | 0.0 | 0.0 | 0.00 | 0.00 | 0.00 | 77 | 1016.8 |
| 20260504040550 | 7 | 320 | 0.0 | 0.0 | 0.00 | 0.00 | 0.00 | 77 | 1016.8 |
| 20260504040047 | 7 | 320 | 0.0 | 0.0 | 0.00 | 0.00 | 0.00 | 78 | 1016.8 |
| 20260504035543 | 7 | 320 | 0.0 | 0.0 | 0.00 | 0.00 | 0.00 | 78 | 1016.8 |
| 20260504035040 | 7 | 320 | 0.0 | 0.0 | 0.00 | 0.00 | 0.00 | 79 | 1016.8 |
| 20260504034538 | 7 | 320 | 0.0 | 0.0 | 0.00 | 0.00 | 0.00 | 78 | 1016.8 |
| 20260504034034 | 7 | 320 | 0.0 | 0.0 | 0.00 | 0.00 | 0.00 | 75 | 1016.8 |
| 20260504033532 | 7 | 320 | 0.0 | 0.0 | 0.00 | 0.00 | 0.00 | 71 | 1016.8 |
| 20260504033030 | 7 | 320 | 0.0 | 0.0 | 0.00 | 0.00 | 0.00 | 73 | 1016.8 |
| 20260504032526 | 7 | 320 | 0.0 | 0.0 | 0.00 | 0.00 | 0.00 | 74 | 1016.5 |
| 20260504032023 | 7 | 320 | 0.0 | 0.0 | 0.00 | 0.00 | 0.00 | 74 | 1016.8 |
| 20260504031520 | 7 | 320 | 0.0 | 0.0 | 0.00 | 0.00 | 0.00 | 77 | 1016.8 |
| 20260504031016 | 7 | 320 | 0.0 | 0.0 | 0.00 | 0.00 | 0.00 | 77 | 1016.8 |
| 20260504030514 | 7 | 320 | 0.0 | 0.0 | 0.00 | 0.00 | 0.00 | 76 | 1016.8 |
| 20260504030010 | 7 | 320 | 0.0 | 0.0 | 0.00 | 0.00 | 0.00 | 77 | 1016.8 |
| 20260504025507 | 7 | 320 | 0.0 | 0.0 | 0.00 | 0.00 | 0.00 | 76 | 1016.5 |
| 20260504025004 | 7 | 320 | 0.0 | 0.0 | 0.00 | 0.00 | 0.00 | 75 | 1016.5 |
| 20260504024500 | 6 | 320 | 0.0 | 0.0 | 0.00 | 0.00 | 0.00 | 75 | 1016.5 |
| 20260504023958 | 7 | 320 | 0.0 | 0.0 | 0.00 | 0.00 | 0.00 | 78 | 1016.5 |
| 20260504023454 | 6 | 320 | 0.0 | 0.0 | 0.00 | 0.00 | 0.00 | 80 | 1016.5 |
| 20260504022950 | 6 | 320 | 0.0 | 0.0 | 0.00 | 0.00 | 0.00 | 80 | 1016.5 |
| 20260504022446 | 6 | 320 | 0.0 | 0.0 | 0.00 | 0.00 | 0.00 | 78 | 1016.5 |
| 20260504021943 | 6 | 320 | 0.0 | 0.0 | 0.00 | 0.00 | 0.00 | 78 | 1016.5 |
| 20260504021440 | 6 | 320 | 0.0 | 0.0 | 0.00 | 0.00 | 0.00 | 77 | 1016.5 |
| 20260504020937 | 6 | 320 | 0.0 | 0.0 | 0.00 | 0.00 | 0.00 | 75 | 1016.5 |
| 20260504020434 | 7 | 320 | 0.0 | 0.0 | 0.00 | 0.00 | 0.00 | 72 | 1016.5 |
| 20260504015931 | 7 | 320 | 0.0 | 0.0 | 0.00 | 0.00 | 0.00 | 66 | 1016.5 |
| 20260504015426 | 7 | 320 | 0.0 | 0.0 | 0.00 | 0.00 | 0.00 | 66 | 1016.1 |
| 20260504014923 | 7 | 320 | 0.0 | 0.0 | 0.00 | 0.00 | 0.00 | 67 | 1016.1 |
| 20260504014419 | 7 | 320 | 0.0 | 0.0 | 0.00 | 0.00 | 0.00 | 67 | 1016.1 |
| 20260504013916 | 7 | 320 | 0.0 | 0.0 | 0.00 | 0.00 | 0.00 | 70 | 1016.1 |
| 20260504013415 | 6 | 320 | 3.2 | 8.0 | 0.00 | 0.00 | 0.00 | 72 | 1015.8 |
| 20260504012910 | 6 | 243 | 0.0 | 0.0 | 0.00 | 0.00 | 0.00 | 74 | 1015.8 |
| 20260504012408 | 7 | 243 | 0.0 | 0.0 | 0.00 | 0.00 | 0.00 | 73 | 1015.8 |
| 20260504011905 | 7 | 243 | 0.0 | 0.0 | 0.00 | 0.00 | 0.00 | 69 | 1016.1 |
| 20260504011402 | 8 | 243 | 0.0 | 0.0 | 0.00 | 0.00 | 0.00 | 66 | 1015.8 |
| 20260504010858 | 8 | 243 | 0.0 | 0.0 | 0.00 | 0.00 | 0.00 | 65 | 1015.8 |
| 20260504010354 | 8 | 243 | 0.0 | 0.0 | 0.00 | 0.00 | 0.00 | 66 | 1015.8 |
| 20260504005850 | 8 | 243 | 0.0 | 0.0 | 0.00 | 0.00 | 0.00 | 68 | 1015.8 |
| 20260504005347 | 8 | 243 | 0.0 | 0.0 | 0.00 | 0.00 | 0.00 | 65 | 1015.8 |
| 20260504004845 | 8 | 243 | 0.0 | 0.0 | 0.00 | 0.00 | 0.00 | 66 | 1015.8 |
| 20260504004343 | 9 | 243 | 0.0 | 0.0 | 0.00 | 0.00 | 0.00 | 67 | 1015.8 |
| 20260504003839 | 9 | 243 | 0.0 | 0.0 | 0.00 | 0.00 | 0.00 | 63 | 1015.8 |
| 20260504003336 | 10 | 243 | 0.0 | 0.0 | 0.00 | 0.00 | 0.00 | 61 | 1015.8 |
| 20260504002832 | 10 | 243 | 0.0 | 0.0 | 0.00 | 0.00 | 0.00 | 56 | 1015.8 |
| 20260504002329 | 10 | 243 | 0.0 | 0.0 | 0.00 | 0.00 | 0.00 | 54 | 1015.8 |
| 20260504001827 | 10 | 243 | 0.0 | 0.0 | 0.00 | 0.00 | 0.00 | 56 | 1015.8 |
| 20260504001324 | 10 | 243 | 0.0 | 0.0 | 0.00 | 0.00 | 0.00 | 56 | 1015.8 |
| 20260504000821 | 11 | 243 | 0.0 | 0.0 | 0.00 | 0.00 | 0.00 | 55 | 1016.1 |
| 20260504000318 | 11 | 243 | 0.0 | 0.0 | 0.00 | 0.00 | 0.00 | 54 | 1015.8 |
| 20260503235815 | 12 | 243 | 0.0 | 0.0 | 0.00 | 0.00 | 0.00 | 47 | 1015.8 |
| 20260503235313 | 13 | 227 | 0.0 | 0.0 | 0.00 | 0.00 | 0.00 | 45 | 1015.8 |
| 20260503234810 | 13 | 227 | 0.0 | 0.0 | 0.00 | 0.00 | 0.00 | 41 | 1015.8 |
| 20260503234308 | 14 | 227 | 3.2 | 4.8 | 0.00 | 0.00 | 0.00 | 37 | 1015.8 |
| 20260503233806 | 15 | 227 | 1.6 | 3.2 | 0.00 | 0.00 | 0.00 | 35 | 1015.8 |
| 20260503233301 | 15 | 227 | 3.2 | 4.8 | 0.00 | 0.00 | 0.00 | 35 | 1015.8 |
| 20260503232758 | 15 | 227 | 3.2 | 4.8 | 0.00 | 0.00 | 0.00 | 34 | 1015.8 |
| 20260503232255 | 16 | 227 | 3.2 | 4.8 | 0.00 | 0.00 | 0.00 | 33 | 1015.8 |
| 20260503231753 | 16 | 227 | 3.2 | 4.8 | 0.00 | 0.00 | 0.00 | 31 | 1015.4 |
| 20260503231250 | 16 | 227 | 1.6 | 4.8 | 0.00 | 0.00 | 0.00 | 31 | 1015.4 |
| 20260503230745 | 16 | 227 | 6.4 | 9.7 | 0.00 | 0.00 | 0.00 | 30 | 1015.4 |
| 20260503230243 | 16 | 234 | 8.0 | 11.3 | 0.00 | 0.00 | 0.00 | 30 | 1015.4 |
| 20260503225741 | 16 | 243 | 8.0 | 11.3 | 0.00 | 0.00 | 0.00 | 28 | 1015.4 |
| 20260503225241 | 17 | 242 | 9.7 | 14.5 | 0.00 | 0.00 | 0.00 | 27 | 1015.4 |
| 20260503224738 | 17 | 239 | 9.7 | 12.9 | 0.00 | 0.00 | 0.00 | 29 | 1015.4 |
| 20260503224236 | 17 | 227 | 6.4 | 9.7 | 0.00 | 0.00 | 0.00 | 30 | 1015.4 |
| 20260503223733 | 17 | 241 | 9.7 | 14.5 | 0.00 | 0.00 | 0.00 | 29 | 1015.4 |
| 20260503223231 | 17 | 210 | 8.0 | 12.9 | 0.00 | 0.00 | 0.00 | 26 | 1015.4 |
| 20260503222726 | 17 | 172 | 4.8 | 8.0 | 0.00 | 0.00 | 0.00 | 27 | 1015.4 |
| 20260503222225 | 17 | 231 | 4.8 | 9.7 | 0.00 | 0.00 | 0.00 | 28 | 1015.4 |
| 20260503221723 | 17 | 252 | 14.5 | 17.7 | 0.00 | 0.00 | 0.00 | 27 | 1015.4 |
| 20260503221221 | 17 | 224 | 6.4 | 9.7 | 0.00 | 0.00 | 0.00 | 28 | 1015.4 |
| 20260503220717 | 17 | 205 | 9.7 | 14.5 | 0.00 | 0.00 | 0.00 | 28 | 1015.4 |
| 20260503220214 | 17 | 234 | 6.4 | 14.5 | 0.00 | 0.00 | 0.00 | 28 | 1015.4 |
| 20260503215711 | 17 | 225 | 9.7 | 16.1 | 0.00 | 0.00 | 0.00 | 26 | 1015.4 |
| 20260503215208 | 18 | 217 | 12.9 | 17.7 | 0.00 | 0.00 | 0.00 | 28 | 1015.4 |
| 20260503214706 | 18 | 213 | 8.0 | 12.9 | 0.00 | 0.00 | 0.00 | 28 | 1015.4 |
| 20260503214201 | 18 | 242 | 11.3 | 16.1 | 0.00 | 0.00 | 0.00 | 28 | 1015.4 |
| 20260503213655 | 17 | 242 | 8.0 | 11.3 | 0.00 | 0.00 | 0.00 | 27 | 1015.4 |
| 20260503213152 | 17 | 208 | 11.3 | 16.1 | 0.00 | 0.00 | 0.00 | 27 | 1015.4 |
| 20260503212649 | 17 | 198 | 9.7 | 14.5 | 0.00 | 0.00 | 0.00 | 27 | 1015.4 |
| 20260503212146 | 18 | 222 | 11.3 | 14.5 | 0.00 | 0.00 | 0.00 | 28 | 1015.4 |
| 20260503211644 | 18 | 216 | 9.7 | 16.1 | 0.00 | 0.00 | 0.00 | 27 | 1015.4 |
| 20260503211139 | 18 | 266 | 8.0 | 14.5 | 0.00 | 0.00 | 0.00 | 27 | 1015.4 |
| 20260503210636 | 18 | 252 | 12.9 | 17.7 | 0.00 | 0.00 | 0.00 | 27 | 1015.4 |
| 20260503210133 | 18 | 243 | 8.0 | 11.3 | 0.00 | 0.00 | 0.00 | 28 | 1015.4 |
| 20260503205628 | 18 | 258 | 9.7 | 16.1 | 0.00 | 0.00 | 0.00 | 27 | 1015.4 |
| 20260503205125 | 18 | 248 | 8.0 | 14.5 | 0.00 | 0.00 | 0.00 | 27 | 1015.4 |
| 20260503204622 | 18 | 248 | 17.7 | 22.5 | 0.00 | 0.00 | 0.00 | 27 | 1015.8 |
| 20260503204119 | 18 | 293 | 11.3 | 16.1 | 0.00 | 0.00 | 0.00 | 27 | 1015.4 |
| 20260503203616 | 18 | 258 | 8.0 | 14.5 | 0.00 | 0.00 | 0.00 | 27 | 1015.8 |
| 20260503203113 | 18 | 261 | 9.7 | 17.7 | 0.00 | 0.00 | 0.00 | 27 | 1015.8 |
| 20260503202611 | 18 | 265 | 12.9 | 17.7 | 0.00 | 0.00 | 0.00 | 28 | 1015.8 |
| 20260503202109 | 18 | 225 | 12.9 | 20.9 | 0.00 | 0.00 | 0.00 | 27 | 1015.8 |
| 20260503201607 | 18 | 234 | 16.1 | 24.1 | 0.00 | 0.00 | 0.00 | 29 | 1015.8 |
| 20260503201104 | 17 | 158 | 6.4 | 9.7 | 0.00 | 0.00 | 0.00 | 28 | 1015.8 |
| 20260503200600 | 18 | 243 | 16.1 | 22.5 | 0.00 | 0.00 | 0.00 | 29 | 1015.8 |
| 20260503200056 | 17 | 214 | 6.4 | 12.9 | 0.00 | 0.00 | 0.00 | 28 | 1015.8 |
| 20260503195554 | 18 | 237 | 9.7 | 12.9 | 0.00 | 0.00 | 0.00 | 28 | 1016.1 |
| 20260503195050 | 18 | 217 | 6.4 | 9.7 | 0.00 | 0.00 | 0.00 | 29 | 1016.1 |
| 20260503194547 | 17 | 210 | 8.0 | 11.3 | 0.00 | 0.00 | 0.00 | 28 | 1016.1 |
| 20260503194047 | 17 | 208 | 6.4 | 12.9 | 0.00 | 0.00 | 0.00 | 28 | 1016.1 |
| 20260503193544 | 18 | 216 | 4.8 | 9.7 | 0.00 | 0.00 | 0.00 | 29 | 1016.1 |
| 20260503193044 | 18 | 239 | 9.7 | 16.1 | 0.00 | 0.00 | 0.00 | 30 | 1016.5 |
| 20260503192541 | 18 | 238 | 11.3 | 16.1 | 0.00 | 0.00 | 0.00 | 30 | 1016.1 |
| 20260503192037 | 18 | 203 | 6.4 | 14.5 | 0.00 | 0.00 | 0.00 | 28 | 1016.5 |
| 20260503191534 | 18 | 271 | 0.0 | 0.0 | 0.00 | 0.00 | 0.00 | 29 | 1016.5 |
| 20260503191031 | 18 | 266 | 8.0 | 9.7 | 0.00 | 0.00 | 0.00 | 28 | 1016.5 |
| 20260503190528 | 18 | 236 | 12.9 | 16.1 | 0.00 | 0.00 | 0.00 | 28 | 1016.5 |
| 20260503190025 | 18 | 239 | 3.2 | 9.7 | 0.00 | 0.00 | 0.00 | 25 | 1016.8 |
| 20260503185521 | 18 | 327 | 6.4 | 9.7 | 0.00 | 0.00 | 0.00 | 28 | 1016.8 |
| 20260503185020 | 18 | 303 | 4.8 | 11.3 | 0.00 | 0.00 | 0.00 | 29 | 1016.8 |
| 20260503184517 | 17 | 256 | 6.4 | 9.7 | 0.00 | 0.00 | 0.00 | 31 | 1016.8 |
| 20260503184013 | 17 | 214 | 9.7 | 17.7 | 0.00 | 0.00 | 0.00 | 31 | 1016.8 |
| 20260503183510 | 17 | 162 | 6.4 | 11.3 | 0.00 | 0.00 | 0.00 | 32 | 1017.2 |
| 20260503183007 | 16 | 180 | 3.2 | 8.0 | 0.00 | 0.00 | 0.00 | 30 | 1017.2 |
| 20260503182506 | 17 | 203 | 3.2 | 12.9 | 0.00 | 0.00 | 0.00 | 33 | 1017.2 |
| 20260503182003 | 16 | 233 | 16.1 | 19.3 | 0.00 | 0.00 | 0.00 | 32 | 1017.2 |
| 20260503181500 | 17 | 257 | 12.9 | 19.3 | 0.00 | 0.00 | 0.00 | 31 | 1017.2 |
| 20260503180956 | 17 | 244 | 14.5 | 30.6 | 0.00 | 0.00 | 0.00 | 30 | 1017.5 |
| 20260503180454 | 17 | 251 | 8.0 | 12.9 | 0.00 | 0.00 | 0.00 | 31 | 1017.5 |
| 20260503175950 | 16 | 230 | 14.5 | 20.9 | 0.00 | 0.00 | 0.00 | 30 | 1017.5 |
| 20260503175449 | 17 | 252 | 14.5 | 24.1 | 0.00 | 0.00 | 0.00 | 32 | 1017.5 |
| 20260503174944 | 16 | 284 | 11.3 | 22.5 | 0.00 | 0.00 | 0.00 | 32 | 1017.5 |
| 20260503174443 | 16 | 204 | 8.0 | 14.5 | 0.00 | 0.00 | 0.00 | 33 | 1017.5 |
| 20260503173938 | 15 | 203 | 1.6 | 3.2 | 0.00 | 0.00 | 0.00 | 29 | 1017.8 |
| 20260503173434 | 16 | 237 | 11.3 | 16.1 | 0.00 | 0.00 | 0.00 | 32 | 1017.8 |
| 20260503172931 | 16 | 235 | 12.9 | 17.7 | 0.00 | 0.00 | 0.00 | 30 | 1017.8 |
| 20260503172429 | 17 | 234 | 8.0 | 9.7 | 0.00 | 0.00 | 0.00 | 30 | 1017.8 |
| 20260503171925 | 16 | 244 | 4.8 | 11.3 | 0.00 | 0.00 | 0.00 | 33 | 1017.8 |
| 20260503171422 | 15 | 235 | 11.3 | 17.7 | 0.00 | 0.00 | 0.00 | 32 | 1017.8 |
| 20260503170919 | 16 | 239 | 11.3 | 14.5 | 0.00 | 0.00 | 0.00 | 32 | 1017.8 |
| 20260503170415 | 16 | 261 | 8.0 | 14.5 | 0.00 | 0.00 | 0.00 | 32 | 1018.2 |
| 20260503150808 | 13 | 264 | 9.7 | 12.9 | 0.00 | 0.00 | 0.00 | 36 | 1019.2 |
| 20260503150303 | 13 | 36 | 4.8 | 6.4 | 0.00 | 0.00 | 0.00 | 33 | 1019.5 |
| 20260503140228 | 12 | 275 | 4.8 | 8.0 | 0.00 | 0.00 | 0.00 | 40 | 1020.0 |
| 20260503131157 | 11 | 5 | 9.7 | 14.5 | 0.00 | 0.00 | 0.00 | 41 | 1020.0 |
| 20260503130654 | 10 | 285 | 8.0 | 14.5 | 0.00 | 0.00 | 0.00 | 39 | 1020.0 |
| 20260503130152 | 10 | 1 | 6.4 | 9.7 | 0.00 | 0.00 | 0.00 | 40 | 1020.0 |
| 20260503120117 | 8 | 325 | 6.4 | 9.7 | 0.00 | 0.00 | 0.00 | 49 | 1019.2 |
| 20260503110544 | 5 | 311 | 0.0 | 0.0 | 0.00 | 0.00 | 0.00 | 63 | 1018.5 |
| 20260503090431 | 5 | 352 | 0.0 | 0.0 | 0.00 | 0.00 | 0.00 | 61 | 1016.5 |
| 20260503081347 | 4 | 302 | 1.6 | 6.4 | 0.00 | 0.00 | 0.00 | 69 | 1015.8 |
| 20260503080844 | 3 | 309 | 1.6 | 4.8 | 0.00 | 0.00 | 0.00 | 73 | 1015.8 |
| 20260503080341 | 4 | 309 | 0.0 | 0.0 | 0.00 | 0.00 | 0.00 | 71 | 1015.8 |
| 20260503072817 | 4 | 248 | 0.0 | 0.0 | 0.00 | 0.00 | 0.00 | 71 | 1015.4 |
| 20260503072314 | 4 | 248 | 0.0 | 0.0 | 0.00 | 0.00 | 0.00 | 71 | 1015.4 |
| 20260503071810 | 4 | 248 | 0.0 | 0.0 | 0.00 | 0.00 | 0.00 | 70 | 1015.4 |
| 20260503071308 | 5 | 248 | 4.8 | 6.4 | 0.00 | 0.00 | 0.00 | 66 | 1015.4 |
| 20260503070803 | 5 | 318 | 3.2 | 9.7 | 0.00 | 0.00 | 0.00 | 60 | 1015.4 |
| 20260503070301 | 5 | 287 | 6.4 | 8.0 | 0.00 | 0.00 | 0.00 | 68 | 1015.4 |